Location: Azul
(36.7830°S, 59.8500°W)
Time: 09:51:49
(UTC-03:00)

ISS - Pass Details

Date: 07 December 2017
Orbit: 402 x 406 km, 51.6° (Epoch: 16 December)

Event Time Altitude Azimuth Distance (km) Brightness Sun altitude
Exits shadow 02:44:43 20° 98° (E) 1,022 -1.5 -24.8°
Drops below altitude 10° 02:46:03 10° 112° (ESE) 1,480 -0.3 -24.7°
Sets 02:48:16 0° 122° (ESE) 2,348 1.0 -24.5°
